Regional Weather Roundup
Issued by NWS

Home | Current Version | Previous Version | Graphics & Text | Print | Product List | Glossary On
Versions: 1 2 3 4 5 6 7 8 9 10 11 12 13 14 15 16 17 18 19 20 21 22 23 24 25 26 27
000
ASUS45 KBOI 011810
RWRID

IDAHO REGIONAL WEATHER ROUNDUP
NATIONAL WEATHER SERVICE BOISE ID
1100 AM MST THU DEC 01 2016

NOTE: "FAIR" INDICATES FEW OR NO CLOUDS BELOW 12000 FEET
WITH NO SIGNIFICANT WEATHER AND/OR OBSTRUCTIONS TO VISIBILITY

IDZ012-014-011900-
SOUTHWEST IDAHO


CITY           SKY/WX    TMP DP  RH WIND       PRES   REMARKS
BOISE          CLOUDY    36  30  79 NW6       30.18R WCI  31
CALDWELL       CLOUDY    37  33  85 CALM      30.21R
MOUNTAIN HOME  PTSUNNY   37  30  75 NW12      30.17S WCI  30
$$

IDZ016-017-011900-
SOUTHCENTRAL IDAHO


CITY           SKY/WX    TMP DP  RH WIND       PRES   REMARKS
BURLEY         CLOUDY    31  26  82 W10       30.10S WCI  22
JEROME         CLOUDY    30  28  92 SW14      30.12R WCI  19
TWIN FALLS     SUNNY     35  23  61 SW20      30.11S WCI  24
$$

IDZ019>023-011900-
SOUTHEAST IDAHO


CITY           SKY/WX    TMP DP  RH WIND       PRES   REMARKS
IDAHO FALLS    CLOUDY    26  23  88 SW16      30.06R WCI  14
POCATELLO      CLOUDY    29  25  85 SW16      30.10R WCI  17
REXBURG        CLOUDY    26  24  92 SW8       30.04R WCI  18
$$

IDZ006-010-011-018-031-032-011900-
CENTRAL IDAHO MOUNTAINS


CITY           SKY/WX    TMP DP  RH WIND       PRES   REMARKS
MCCALL         FLURRIES  27  21  78 CALM      30.07R
HAILEY         MOSUNNY   27  16  63 CALM      30.06R
STANLEY          N/A     26  19  74 N5        30.02S WCI  20
SALMON         CLOUDY    28  25  86 CALM      30.07S
CHALLIS        MOSUNNY   25  23  92 CALM      30.04R
$$

IDZ002-004-006-007-026-011900-
NORTHERN IDAHO


CITY           SKY/WX    TMP DP  RH WIND       PRES   REMARKS
LEWISTON       CLOUDY    45  31  58 CALM      30.15R
LOWELL           N/A     35  33  92 CALM      30.19R
COEUR D`ALENE  FLURRIES  34  33  96 SW10      30.10R WCI  26
MULLAN PASS    SNOW      23  21  92 VRB5      29.95R VSB 1/4 WCI  17
$$




USA.gov is the U.S. government's official web portal to all federal, state and local government web resources and services.